Location: Marseilles
(40.7010°N, 83.3930°W)
Time: 19:32:55
(UTC-04:00)

Cosmos 1459 Rocket - Visible Passes

Search period start: 01 September 2014 00:00
Search period end: 11 September 2014 00:00
Orbit: 939 x 1000 km, 83.0° (Epoch: 31 August)

Date Brightness Start Highest point End Pass type
(mag) Time Alt. Az. Time Alt. Az. Time Alt. Az.
01 Sep 4.0 20:46:32 10° N 20:52:53 83° E 20:59:06 10° S visible
01 Sep 6.7 22:34:12 10° NW 22:37:12 14° W 22:40:11 10° WSW visible
02 Sep 4.7 21:10:11 10° NNW 21:16:21 58° W 21:22:23 10° S visible
03 Sep 5.7 21:34:10 10° NNW 21:39:39 33° W 21:45:03 10° SSW visible
04 Sep 6.6 21:58:43 10° NW 22:02:48 18° W 22:06:51 10° WSW visible
05 Sep 4.3 20:35:30 10° N 20:41:47 75° W 20:47:55 10° S visible
06 Sep 5.3 20:59:19 10° NNW 21:05:09 42° W 21:10:53 10° SSW visible
07 Sep 6.3 21:23:33 10° NNW 21:28:23 24° W 21:33:08 10° SW visible
08 Sep 6.9 21:48:48 10° NW 21:51:26 13° WNW 21:54:04 10° WSW visible
09 Sep 4.9 20:24:33 10° NNW 20:30:37 55° W 20:36:34 10° SSW visible
10 Sep 6.0 20:48:34 10° NNW 20:53:55 31° W 20:59:10 10° SW visible
